Location: Cudham
(51.3000°N, 0.0667°E)
Time: 23:36:36
(UTC+00:00)

Spot 2 Rocket - Pass Details

Date: 15 May 2026
Orbit: 752 x 765 km, 98.3° (Epoch: 11 June)

Event Time Altitude Azimuth Distance (km) Brightness Sun altitude
Exits shadow 21:03:02 - 179° (S) 2,684 5.9 -10.1°
Reaches altitude 10° 21:04:05 10° 182° (S) 2,273 5.5 -10.2°
Maximum altitude 21:09:00 55° 260° (W) 910 4.1 -10.7°
Drops below altitude 10° 21:13:57 10° 338° (NNW) 2,296 7.3 -11.2°
Sets 21:16:20 0° 343° (NNW) 3,228 8.2 -11.5°
